Location: Axtheid
(49.6213°N, 11.8205°E)
Time: 03:27:55
(UTC+00:00)

COSMO-SKYMED 1 - Pass Details

Date: 24 January 2021
Orbit: 621 x 623 km, 97.9° (Epoch: 26 February)

Event Time Altitude Azimuth Distance (km) Brightness Sun altitude
Rises 17:30:36 0° 13° (NNE) 2,917 5.8 -15.3°
Reaches altitude 10° 17:32:48 10° 13° (NNE) 2,005 4.9 -15.6°
Maximum altitude 17:37:11 87° 283° (WNW) 631 2.5 -16.3°
Drops below altitude 10° 17:41:30 10° 196° (SSW) 1,988 5.5 -17.0°
Sets 17:43:41 0° 197° (SSW) 2,889 6.3 -17.4°
